TimeCDT,TemperatureF,Dew PointF,Humidity,Sea Level PressureIn,VisibilityMPH,Wind Direction,Wind SpeedMPH,Gust SpeedMPH,PrecipitationIn,Events,Conditions,WindDirDegrees,DateUTC
12:53 AM,60.1,44.1,55,29.81,10.0,WSW,5.8,-,N/A,,Clear,250,2013-05-16 05:53:00
1:53 AM,57.9,44.1,60,29.82,10.0,West,10.4,-,N/A,,Clear,280,2013-05-16 06:53:00
2:53 AM,55.9,45.0,67,29.82,10.0,West,9.2,-,N/A,,Clear,280,2013-05-16 07:53:00
3:53 AM,55.0,45.0,69,29.84,10.0,WNW,8.1,-,N/A,,Clear,290,2013-05-16 08:53:00
4:53 AM,54.0,45.0,72,29.86,10.0,West,3.5,-,N/A,,Clear,260,2013-05-16 09:53:00
5:53 AM,50.0,45.0,83,29.88,10.0,West,3.5,-,N/A,,Clear,270,2013-05-16 10:53:00
6:53 AM,55.0,48.9,80,29.90,10.0,SSW,3.5,-,N/A,,Partly Cloudy,200,2013-05-16 11:53:00
7:53 AM,62.1,48.0,60,29.91,10.0,Calm,Calm,-,N/A,,Clear,0,2013-05-16 12:53:00
8:53 AM,66.9,44.1,44,29.93,10.0,NE,11.5,-,N/A,,Clear,50,2013-05-16 13:53:00
9:53 AM,61.0,46.0,58,29.95,10.0,NE,11.5,-,N/A,,Scattered Clouds,50,2013-05-16 14:53:00
10:53 AM,61.0,42.1,50,29.97,10.0,NE,9.2,-,N/A,,Scattered Clouds,40,2013-05-16 15:53:00
11:53 AM,66.9,44.1,44,29.97,10.0,NE,8.1,-,N/A,,Partly Cloudy,40,2013-05-16 16:53:00
12:53 PM,69.1,46.9,45,29.96,10.0,ENE,9.2,-,N/A,,Clear,60,2013-05-16 17:53:00
1:53 PM,69.1,46.0,44,29.96,10.0,ENE,10.4,19.6,N/A,,Clear,60,2013-05-16 18:53:00
2:53 PM,69.1,43.0,39,29.96,10.0,ESE,11.5,-,N/A,,Clear,120,2013-05-16 19:53:00
3:53 PM,70.0,43.0,38,29.95,10.0,ESE,10.4,-,N/A,,Clear,120,2013-05-16 20:53:00
4:53 PM,66.9,42.1,40,29.96,10.0,East,12.7,-,N/A,,Clear,100,2013-05-16 21:53:00
5:53 PM,66.0,41.0,40,29.96,10.0,East,12.7,-,N/A,,Clear,100,2013-05-16 22:53:00
6:53 PM,63.0,39.9,43,29.98,10.0,East,11.5,-,N/A,,Clear,100,2013-05-16 23:53:00
7:53 PM,59.0,37.0,44,30.01,10.0,East,11.5,-,N/A,,Clear,90,2013-05-17 00:53:00
8:53 PM,57.0,35.1,44,30.04,10.0,North,-9999.0,-,N/A,,Mostly Cloudy,0,2013-05-17 01:53:00
9:53 PM,55.0,37.0,51,30.07,10.0,ENE,10.4,-,N/A,,Mostly Cloudy,60,2013-05-17 02:53:00
10:53 PM,54.0,37.9,55,30.08,10.0,NE,9.2,-,N/A,,Overcast,50,2013-05-17 03:53:00
11:53 PM,53.1,39.0,59,30.06,10.0,ENE,9.2,-,N/A,,Clear,60,2013-05-17 04:53:00